Total_Precipitation_Accumulation
0.34 0.38 0.54 0.49 0.32 0.30 0.49 0.47 0.49 0.32 0.31 0.37 0.39 0.46 0.46 0.43 0.36 0.29 0.27 0.28 0.32 0.36 0.37 0.40 0.42 0.44 0.47 0.51 0.57 0.63 0.66 0.66 0.63 0.63 0.63 0.66 0.71 0.71 0.68 0.69 0.70 0.73 0.81 0.88
0.37 0.34 0.44 0.38 0.23 0.22 0.25 0.25 0.28 0.24 0.32 0.33 0.36 0.42 0.45 0.43 0.34 0.26 0.24 0.24 0.26 0.29 0.33 0.36 0.41 0.46 0.50 0.56 0.65 0.69 0.72 0.69 0.67 0.63 0.61 0.58 0.59 0.60 0.60 0.60 0.60 0.64 0.68 0.71
0.62 0.32 0.42 0.41 0.28 0.25 0.26 0.25 0.26 0.33 0.33 0.28 0.34 0.41 0.41 0.36 0.27 0.23 0.22 0.22 0.23 0.25 0.30 0.34 0.43 0.52 0.59 0.65 0.73 0.75 0.77 0.71 0.66 0.62 0.59 0.57 0.54 0.55 0.57 0.59 0.61 0.64 0.67 0.70
0.84 0.54 0.59 0.43 0.30 0.28 0.28 0.27 0.25 0.26 0.23 0.23 0.29 0.33 0.31 0.25 0.23 0.19 0.18 0.18 0.20 0.22 0.23 0.26 0.33 0.44 0.54 0.61 0.75 0.79 0.79 0.78 0.75 0.74 0.75 0.76 0.76 0.76 0.77 0.74 0.76 0.80 0.84 0.87
0.80 0.60 0.35 0.21 0.18 0.26 0.33 0.32 0.24 0.20 0.17 0.15 0.17 0.24 0.29 0.23 0.22 0.22 0.19 0.18 0.18 0.19 0.20 0.21 0.25 0.33 0.42 0.55 0.72 0.86 0.94 0.96 0.97 1.00 1.05 1.08 1.09 1.07 1.07 1.08 1.07 1.04 0.99 0.94
0.76 0.64 0.34 0.22 0.11 0.12 0.22 0.37 0.18 0.14 0.14 0.13 0.14 0.25 0.32 0.29 0.25 0.23 0.22 0.21 0.20 0.20 0.21 0.23 0.27 0.34 0.48 0.66 0.83 0.95 1.01 1.06 1.10 1.17 1.24 1.22 1.19 1.15 1.07 1.03 1.05 1.03 1.00 0.93
0.65 0.62 0.35 0.22 0.10 0.08 0.31 0.44 0.19 0.15 0.16 0.17 0.21 0.28 0.25 0.23 0.26 0.26 0.26 0.29 0.30 0.31 0.34 0.36 0.39 0.47 0.63 0.75 0.87 0.93 0.95 0.97 1.00 1.00 1.03 1.01 0.98 0.94 0.89 0.84 0.80 0.77 0.73 0.67
0.46 0.63 0.49 0.25 0.17 0.30 0.42 0.26 0.19 0.15 0.15 0.17 0.18 0.17 0.15 0.14 0.17 0.21 0.24 0.30 0.38 0.45 0.48 0.49 0.52 0.59 0.67 0.71 0.72 0.71 0.70 0.70 0.69 0.65 0.61 0.62 0.64 0.65 0.63 0.61 0.59 0.56 0.52 0.49
0.47 0.55 0.44 0.32 0.35 0.38 0.30 0.25 0.19 0.16 0.15 0.15 0.15 0.15 0.13 0.12 0.11 0.13 0.13 0.16 0.21 0.28 0.33 0.34 0.35 0.40 0.44 0.42 0.37 0.34 0.32 0.33 0.35 0.34 0.34 0.35 0.38 0.41 0.44 0.45 0.45 0.46 0.45 0.44
0.39 0.39 0.31 0.28 0.28 0.27 0.25 0.25 0.22 0.19 0.17 0.16 0.17 0.16 0.15 0.12 0.11 0.11 0.10 0.12 0.12 0.13 0.15 0.15 0.16 0.19 0.22 0.20 0.16 0.16 0.17 0.18 0.21 0.24 0.27 0.29 0.33 0.36 0.39 0.40 0.40 0.41 0.42 0.42
0.35 0.30 0.25 0.22 0.22 0.22 0.21 0.20 0.19 0.17 0.17 0.17 0.18 0.18 0.16 0.15 0.14 0.14 0.13 0.13 0.13 0.13 0.13 0.14 0.14 0.14 0.16 0.16 0.15 0.15 0.15 0.16 0.18 0.21 0.24 0.26 0.28 0.34 0.40 0.41 0.44 0.48 0.46 0.44
0.40 0.28 0.31 0.26 0.19 0.18 0.18 0.17 0.18 0.19 0.20 0.20 0.19 0.21 0.19 0.18 0.18 0.17 0.17 0.16 0.15 0.15 0.17 0.19 0.20 0.21 0.21 0.21 0.20 0.19 0.20 0.20 0.23 0.24 0.25 0.26 0.27 0.29 0.34 0.39 0.43 0.45 0.47 0.47
0.30 0.24 0.25 0.22 0.16 0.15 0.16 0.17 0.18 0.18 0.19 0.19 0.19 0.19 0.20 0.21 0.21 0.19 0.20 0.21 0.22 0.23 0.25 0.25 0.24 0.25 0.26 0.26 0.26 0.26 0.28 0.29 0.30 0.30 0.30 0.29 0.30 0.32 0.32 0.34 0.38 0.41 0.43 0.46
0.20 0.20 0.21 0.19 0.18 0.16 0.15 0.17 0.17 0.17 0.18 0.18 0.18 0.17 0.18 0.18 0.18 0.19 0.23 0.26 0.26 0.25 0.25 0.26 0.26 0.27 0.28 0.29 0.30 0.30 0.31 0.35 0.38 0.36 0.37 0.39 0.39 0.40 0.41 0.42 0.40 0.38 0.41 0.48
0.16 0.19 0.23 0.22 0.19 0.18 0.18 0.18 0.17 0.18 0.19 0.20 0.20 0.19 0.17 0.17 0.17 0.19 0.21 0.21 0.22 0.22 0.23 0.23 0.23 0.26 0.27 0.29 0.31 0.31 0.32 0.35 0.38 0.40 0.43 0.45 0.46 0.47 0.47 0.46 0.44 0.40 0.38 0.42
0.20 0.18 0.19 0.20 0.22 0.23 0.22 0.21 0.20 0.21 0.22 0.21 0.21 0.21 0.20 0.19 0.18 0.18 0.17 0.16 0.18 0.20 0.22 0.23 0.25 0.27 0.26 0.28 0.31 0.32 0.32 0.39 0.42 0.41 0.43 0.46 0.48 0.48 0.48 0.47 0.46 0.44 0.41 0.42
0.32 0.30 0.28 0.29 0.27 0.27 0.28 0.27 0.26 0.26 0.25 0.24 0.23 0.22 0.20 0.18 0.17 0.16 0.17 0.17 0.18 0.21 0.22 0.24 0.26 0.26 0.27 0.28 0.31 0.34 0.35 0.38 0.45 0.43 0.42 0.46 0.50 0.53 0.52 0.51 0.50 0.46 0.43 0.48
0.38 0.41 0.42 0.44 0.42 0.39 0.35 0.32 0.30 0.29 0.28 0.28 0.25 0.22 0.22 0.21 0.21 0.21 0.22 0.22 0.21 0.21 0.22 0.23 0.25 0.26 0.26 0.29 0.34 0.37 0.38 0.39 0.42 0.45 0.47 0.51 0.56 0.57 0.58 0.57 0.56 0.54 0.50 0.53
0.34 0.36 0.37 0.40 0.42 0.42 0.39 0.37 0.36 0.34 0.32 0.29 0.27 0.27 0.25 0.25 0.25 0.25 0.24 0.24 0.22 0.23 0.23 0.23 0.27 0.26 0.27 0.31 0.39 0.40 0.43 0.45 0.46 0.48 0.51 0.57 0.59 0.56 0.57 0.59 0.59 0.59 0.59 0.59
0.31 0.30 0.31 0.35 0.37 0.38 0.38 0.37 0.36 0.35 0.34 0.33 0.31 0.29 0.27 0.27 0.27 0.27 0.25 0.25 0.27 0.28 0.27 0.26 0.26 0.25 0.27 0.31 0.39 0.42 0.45 0.47 0.50 0.51 0.52 0.54 0.55 0.53 0.54 0.55 0.57 0.58 0.59 0.59
0.33 0.31 0.31 0.32 0.35 0.36 0.36 0.36 0.36 0.37 0.37 0.35 0.35 0.33 0.31 0.30 0.30 0.30 0.29 0.27 0.27 0.25 0.24 0.25 0.24 0.25 0.31 0.38 0.42 0.41 0.42 0.46 0.48 0.50 0.51 0.52 0.52 0.51 0.51 0.52 0.54 0.55 0.55 0.55
0.34 0.34 0.33 0.34 0.35 0.38 0.38 0.38 0.37 0.37 0.36 0.35 0.34 0.33 0.31 0.30 0.28 0.27 0.26 0.27 0.26 0.28 0.28 0.23 0.24 0.32 0.44 0.49 0.43 0.38 0.40 0.44 0.47 0.49 0.50 0.50 0.50 0.50 0.49 0.50 0.52 0.51 0.52 0.54
0.35 0.35 0.34 0.33 0.33 0.33 0.32 0.33 0.33 0.34 0.34 0.35 0.35 0.34 0.32 0.30 0.28 0.28 0.27 0.24 0.23 0.27 0.29 0.27 0.32 0.43 0.51 0.47 0.40 0.41 0.44 0.46 0.46 0.47 0.49 0.50 0.51 0.53 0.52 0.51 0.51 0.51 0.52 0.52
0.28 0.28 0.29 0.28 0.25 0.23 0.25 0.26 0.27 0.28 0.28 0.29 0.28 0.28 0.27 0.25 0.23 0.21 0.22 0.23 0.26 0.30 0.29 0.30 0.37 0.42 0.44 0.40 0.40 0.44 0.46 0.47 0.47 0.47 0.47 0.47 0.48 0.49 0.49 0.48 0.47 0.46 0.46 0.47
0.23 0.22 0.20 0.19 0.18 0.18 0.19 0.19 0.19 0.19 0.20 0.22 0.22 0.22 0.22 0.22 0.24 0.22 0.20 0.20 0.22 0.26 0.26 0.27 0.31 0.34 0.34 0.34 0.38 0.41 0.43 0.44 0.48 0.51 0.49 0.47 0.46 0.46 0.44 0.44 0.45 0.44 0.43 0.42
0.20 0.18 0.18 0.17 0.17 0.16 0.16 0.15 0.15 0.15 0.16 0.18 0.18 0.19 0.21 0.22 0.22 0.22 0.21 0.21 0.22 0.25 0.25 0.25 0.26 0.29 0.30 0.33 0.36 0.37 0.38 0.39 0.41 0.42 0.42 0.43 0.43 0.42 0.40 0.39 0.38 0.39 0.39 0.39
0.14 0.13 0.12 0.12 0.12 0.13 0.13 0.13 0.14 0.14 0.14 0.16 0.19 0.19 0.19 0.21 0.21 0.21 0.21 0.21 0.22 0.23 0.23 0.23 0.24 0.27 0.29 0.31 0.32 0.32 0.32 0.33 0.34 0.36 0.37 0.38 0.38 0.37 0.35 0.36 0.36 0.36 0.37 0.37